Weather History for Dutch Harbor, AK

Change the Weather History Date:

Sunday, December 11, 2011

  Actual Average Record
Temperature  
Mean Temperature 36 °F -  
Max Temperature 39 °F 37 °F 55 °F (2012)
Min Temperature 33 °F 29 °F 19 °F (1988)
Degree Days  
Heating Degree Days 29    
Moisture  
Dew Point 29 °F    
Average Humidity 76    
Maximum Humidity 93    
Minimum Humidity 53    
Precipitation  
Precipitation 0.15 in - - ()
Sea Level Pressure  
Sea Level Pressure 29.45 in    
Wind  
Wind Speed 10 mph (WSW)    
Max Wind Speed 26 mph    
Max Gust Speed 44 mph    
Visibility 6 miles    
Events Rain , Snow    
Averages and records for this station are not official NWS values.
T = Trace of Precipitation, MM = Missing Value Source: NWS Daily Summary

Daily Weather History Graph

Daily Weather History Graph

Search for Another Location

Airport:

Trip Planner

Search our weather history database for the weather conditions in past years. The results will help you decide how hot, cold, wet, or windy it might be!

Date:

Astronomy

Dec. 11, 2011 Rise Set
Actual Time 10:14 AM AKST 5:44 PM AKST
Civil Twilight 9:31 AM AKST 6:27 PM AKST
Nautical Twilight 8:45 AM AKST 7:13 PM AKST
Astronomical Twilight 8:02 AM AKST 7:56 PM AKST
Moon 7:09 PM AKST (12/11) 11:11 AM AKST (12/11)
Length of Visible Light 8h 56m
Length of Day
7h 29m
Full, 98% of the Moon is Illuminated
Dec 11
Full
Dec 17
Last Quarter
Dec 24
New
Dec 31
First Quarter
Jan 8
Full

Hourly Weather History & Observations

Time (AKST) Temp. Windchill Dew Point Humidity Pressure Visibility Wind Dir Wind Speed Gust Speed Precip Events Conditions
12:56 AM 36.0 °F 33.3 °F 27.0 °F 70% 29.34 in 10.0 mi SSE 3.5 mph - N/A   Overcast
1:56 AM 35.1 °F 32.2 °F 27.0 °F 72% 29.32 in 10.0 mi South 3.5 mph - N/A   Clear
2:56 AM 36.0 °F 29.6 °F 30.0 °F 79% 29.32 in 10.0 mi SSW 8.1 mph - 0.00 in Rain Light Rain
3:56 AM 36.0 °F 29.6 °F 28.9 °F 76% 29.31 in 10.0 mi SSW 8.1 mph - 0.00 in   Scattered Clouds
4:56 AM 36.0 °F 29.0 °F 28.0 °F 73% 29.31 in 10.0 mi WSW 9.2 mph - 0.00 in   Scattered Clouds
5:56 AM 37.9 °F 29.2 °F 25.0 °F 60% 29.29 in 10.0 mi WSW 15.0 mph 26.5 mph 0.00 in   Partly Cloudy
6:36 AM 37.4 °F 28.9 °F 28.4 °F 70% 29.30 in 10.0 mi West 13.8 mph - 0.00 in Rain Light Rain
6:56 AM 37.0 °F 27.7 °F 28.0 °F 70% 29.31 in 10.0 mi West 16.1 mph - 0.00 in Snow Light Snow
7:56 AM 36.0 °F 29.0 °F 28.0 °F 73% 29.33 in 9.0 mi West 9.2 mph 17.3 mph 0.00 in Snow Light Snow
8:56 AM 37.0 °F 29.8 °F 25.0 °F 62% 29.35 in 10.0 mi SW 10.4 mph 21.9 mph 0.00 in   Scattered Clouds
9:51 AM 33.8 °F 24.8 °F 30.2 °F 87% 29.35 in 3.0 mi WSW 12.7 mph - 0.00 in Snow Light Snow
9:56 AM 35.1 °F 25.2 °F 30.0 °F 82% 29.37 in 3.0 mi SW 16.1 mph 21.9 mph 0.00 in Snow Light Snow
10:08 AM 35.6 °F 25.9 °F 28.4 °F 75% 29.35 in 9.0 mi SW 16.1 mph 23.0 mph 0.00 in Snow Light Snow
10:37 AM 35.6 °F 28.6 °F 30.2 °F 81% 29.37 in 2.5 mi WSW 9.2 mph 18.4 mph 0.00 in Snow Light Snow
10:52 AM 35.6 °F 28.6 °F 30.2 °F 81% 29.38 in 5.0 mi West 9.2 mph - 0.01 in Snow Light Snow
10:56 AM 36.0 °F 28.0 °F 30.9 °F 82% 29.41 in 2.5 mi West 11.5 mph - 0.01 in Snow Light Snow
11:08 AM 33.8 °F 28.6 °F 30.2 °F 87% 29.39 in 0.8 mi WNW 5.8 mph - 0.01 in Snow Light Snow
11:16 AM 33.8 °F 27.7 °F 30.2 °F 87% 29.39 in 1.2 mi WNW 6.9 mph - 0.02 in Snow Light Snow
11:29 AM 33.8 °F - 30.2 °F 87% 29.40 in 2.0 mi Calm Calm - 0.04 in Snow Light Snow
11:35 AM 33.8 °F 29.6 °F 32.0 °F 93% 29.40 in 3.0 mi Variable 4.6 mph - 0.05 in Snow Light Snow
11:39 AM 33.8 °F 27.7 °F 32.0 °F 93% 29.40 in 2.0 mi West 6.9 mph - 0.05 in Snow Light Snow
11:45 AM 33.8 °F 27.0 °F 32.0 °F 93% 29.40 in 1.5 mi WSW 8.1 mph 19.6 mph 0.06 in Snow Light Snow
11:47 AM 33.8 °F 28.6 °F 32.0 °F 93% 29.40 in 1.2 mi SW 5.8 mph 19.6 mph 0.06 in Snow Light Snow
11:56 AM 34.0 °F 31.0 °F 32.0 °F 92% 29.42 in 6.0 mi Variable 3.5 mph - 0.06 in Snow Light Snow
12:02 PM 35.6 °F 27.5 °F 30.2 °F 81% 29.40 in 2.5 mi WSW 11.5 mph - 0.00 in Snow Light Snow
12:15 PM 35.6 °F 28.6 °F 30.2 °F 81% 29.41 in 2.0 mi WSW 9.2 mph - 0.01 in Snow Light Snow
12:43 PM 35.6 °F 26.6 °F 30.2 °F 81% 29.41 in 5.0 mi SW 13.8 mph 23.0 mph 0.06 in   Overcast
12:56 PM 37.0 °F 29.3 °F 28.9 °F 73% 29.43 in 10.0 mi SW 11.5 mph - 0.07 in   Overcast
1:19 PM 37.4 °F 28.2 °F 30.2 °F 75% 29.44 in 2.5 mi West 16.1 mph 28.8 mph 0.00 in Snow Light Snow
1:33 PM 35.6 °F 29.9 °F 30.2 °F 81% 29.44 in 4.0 mi WSW 6.9 mph - 0.00 in Snow Light Snow
1:37 PM 35.6 °F 29.9 °F 30.2 °F 81% 29.44 in 5.0 mi WNW 6.9 mph - 0.00 in Snow Light Snow
1:56 PM 36.0 °F 29.0 °F 30.0 °F 79% 29.45 in 10.0 mi West 9.2 mph - 0.00 in Rain Light Rain
2:09 PM 37.4 °F 32.1 °F 28.4 °F 70% 29.43 in 10.0 mi West 6.9 mph 16.1 mph 0.00 in   Mostly Cloudy
2:49 PM 37.4 °F 28.5 °F 24.8 °F 60% 29.44 in 10.0 mi SW 15.0 mph 24.2 mph 0.01 in   Mostly Cloudy
2:56 PM 39.0 °F 29.3 °F 26.1 °F 60% 29.45 in 10.0 mi SW 19.6 mph 25.3 mph 0.01 in   Mostly Cloudy
3:56 PM 37.9 °F 30.9 °F 26.1 °F 62% 29.48 in 10.0 mi West 10.4 mph 21.9 mph 0.00 in Rain Light Rain
4:56 PM 37.0 °F 28.9 °F 26.1 °F 65% 29.51 in 9.0 mi SW 12.7 mph 31.1 mph 0.00 in Snow Light Snow
5:24 PM 35.6 °F 25.5 °F 30.2 °F 81% 29.52 in 2.5 mi WSW 17.3 mph 34.5 mph 0.00 in Snow Light Snow
5:26 PM 35.6 °F 26.2 °F 30.2 °F 81% 29.51 in 1.8 mi WSW 15.0 mph 34.5 mph N/A Snow Light Snow
5:29 PM 33.8 °F 24.8 °F 30.2 °F 87% 29.51 in 1.2 mi SW 12.7 mph 28.8 mph N/A Snow Light Snow
5:56 PM 37.0 °F 25.1 °F 27.0 °F 67% 29.53 in 9.0 mi SW 26.5 mph 36.8 mph N/A Snow Light Snow
6:02 PM 35.6 °F 23.2 °F 28.4 °F 75% 29.53 in 2.0 mi SW 26.5 mph 43.7 mph N/A Snow Light Snow
6:04 PM 35.6 °F 24.0 °F 28.4 °F 75% 29.53 in 1.2 mi SW 23.0 mph 43.7 mph N/A Snow Light Snow
6:24 PM 37.4 °F 27.5 °F 26.6 °F 65% 29.54 in 5.0 mi WSW 18.4 mph 32.2 mph N/A Snow Light Snow
6:56 PM 37.0 °F 28.1 °F 28.0 °F 70% 29.57 in 9.0 mi West 15.0 mph 31.1 mph N/A Rain Light Rain
7:10 PM 35.6 °F 28.6 °F 28.4 °F 75% 29.56 in 10.0 mi SW 9.2 mph - N/A   Overcast
7:35 PM 33.8 °F 22.5 °F 30.2 °F 87% 29.57 in 3.0 mi WSW 19.6 mph 23.0 mph N/A Snow Light Snow
7:47 PM 35.6 °F 24.5 °F 28.4 °F 75% 29.58 in 5.0 mi SW 20.7 mph 27.6 mph N/A   Overcast
7:54 PM 35.6 °F 28.0 °F 28.4 °F 75% 29.59 in 3.0 mi WSW 10.4 mph 26.5 mph N/A   Overcast
7:56 PM 35.1 °F 29.3 °F 28.9 °F 78% 29.61 in 4.0 mi West 6.9 mph 24.2 mph N/A   Overcast
8:01 PM 35.6 °F 31.7 °F 28.4 °F 75% 29.59 in 5.0 mi West 4.6 mph - 0.00 in   Overcast
8:56 PM 37.9 °F 32.1 °F 25.0 °F 60% 29.62 in 10.0 mi West 8.1 mph 24.2 mph 0.00 in Rain Light Rain
9:56 PM 39.0 °F 29.3 °F 23.0 °F 53% 29.63 in 10.0 mi SW 19.6 mph 33.4 mph 0.00 in   Partly Cloudy
10:56 PM 37.9 °F 28.9 °F 24.1 °F 57% 29.65 in 10.0 mi SSW 16.1 mph - N/A   Partly Cloudy
11:56 PM 39.0 °F 29.3 °F 27.0 °F 62% 29.67 in 10.0 mi WSW 19.6 mph 39.1 mph 0.00 in   Overcast